#timestamp,LO_Frequency,Hit 
1504040415.4,286047005.6,N
1504040435.2,286047005.9,N
1504040455.0,286047004.4,N
1504040455.9,286047004.4,N
1504040475.8,286047002.5,N
1504040495.6,286047004.3,N
1504040515.4,286047004.1,N
1504040535.2,286047001.4,N
1504040555.1,286047003.4,N
1504040556.0,286047003.4,N
1504040575.8,286047006.0,N
1504040595.7,286047007.2,P
1504040615.5,286047001.3,N
1504040635.3,286047009.2,P
1504040655.2,286047010.6,P
1504040675.9,286047004.1,N
1504040695.7,286047003.4,N
1504040715.6,286047005.2,N
1504040735.4,286047005.3,N
1504040755.2,286047007.2,P
1504040775.1,286047000.4,N
1504040776.0,286047000.4,N
1504040795.8,286046999.7,N
1504040815.6,286047001.1,N
1504040835.5,286047000.2,N
1504040855.3,286047000.2,N
1504040875.1,286046998.6,N
1504040895.9,286046998.4,N
1504040915.7,286046999.1,N
1504040935.5,286046999.5,N
1504040955.3,286046999.0,N
1504040975.2,286046997.5,N
1504040995.0,286046995.5,N
1504040995.9,286046995.5,N
1504041015.7,286046995.6,N
1504041035.6,286046995.1,N
1504041055.4,286046997.9,N
1504041075.2,286046997.2,N
1504041095.1,286046995.7,N
1504041096.0,286046995.7,N
1504041115.8,286046995.6,N
1504041135.6,286046991.8,N
1504041155.5,286046994.7,N
1504041175.3,286046992.6,N
1504041195.1,286046992.3,N
1504041215.9,286046994.5,N
1504041235.7,286046993.9,N
1504041255.5,286046992.4,N
1504041275.4,286046993.1,N
1504041295.2,286046992.6,N
1504041315.0,286046991.8,N
1504041315.9,286046991.8,N
1504041335.8,286046993.0,N
1504041355.6,286046991.4,P
1504041375.4,286046994.7,N
1504041395.3,286046994.7,N
1504041415.1,286046994.0,P
1504041435.8,286047002.4,P
1504041455.7,286047004.4,N
1504041475.5,286047004.9,N
1504041495.3,286047006.7,N
1504041515.2,286047008.3,N
1504041535.9,286047010.8,N
1504041555.7,286047011.6,N
1504041575.5,286047009.8,N
1504041595.4,286047011.5,N
1504041615.2,286047011.1,N
1504041635.0,286047013.5,N
1504041635.9,286047013.5,N
1504041655.8,286047011.0,N
1504041675.6,286047009.3,N
1504041695.4,286047011.5,N
1504041715.3,286047010.8,N
1504041735.1,286047010.8,N
1504041736.0,286047010.8,N
1504041755.8,286047010.5,N
1504041775.7,286047010.1,N
1504041795.5,286047011.6,N
1504041815.3,286047011.5,N
1504041835.2,286047013.6,N
1504041855.9,286047014.0,N
1504041875.7,286047012.3,N
1504041895.5,286047013.1,N
1504041915.4,286047013.8,N
1504041935.2,286047011.5,N
1504041955.0,286047011.6,N
1504041955.9,286047011.6,N
1504041975.8,286047011.2,P
1504041995.6,286047005.5,P
1504042015.4,286047005.7,N
1504042035.3,286047006.3,N
1504042055.1,286047007.4,N
1504042075.8,286047006.1,N
1504042095.7,286047005.5,N
1504042115.5,286047007.2,P
1504042135.3,286046997.1,P
1504042155.2,286046997.6,N
1504042175.0,286046995.3,N
1504042175.9,286046995.3,N
1504042195.7,286046995.0,N
1504042215.6,286046997.1,N
1504042235.4,286046999.2,N
1504042255.2,286046998.4,N
1504042275.1,286046999.2,N
1504042276.0,286046999.2,N
1504042295.8,286046998.9,N
1504042315.6,286046997.2,N
1504042335.5,286046999.5,N
1504042355.3,286046998.5,N
1504042375.1,286047002.1,N
1504042395.9,286046999.5,N
1504042415.7,286046996.9,N
1504042435.5,286046998.7,N
1504042455.4,286046999.6,N
1504042475.2,286047000.7,N
1504042495.0,286047001.5,N
1504042495.9,286047001.5,N
1504042515.8,286047002.6,N
1504042535.6,286046998.2,N
1504042555.4,286047002.6,N
1504042575.2,286047002.8,N
1504042595.1,286047004.1,N
1504042596.0,286047004.1,N
1504042615.8,286046999.9,N
1504042635.6,286046998.5,N
1504042655.5,286047001.7,N
1504042675.3,286047004.0,N
1504042695.1,286047003.7,N
1504042715.9,286047003.8,N
1504042735.7,286047003.6,N
1504042755.5,286047002.0,N
1504042775.4,286047001.1,N
1504042795.2,286047001.7,N
1504042815.0,286047002.5,N
1504042815.9,286047002.5,N
1504042835.8,286047002.6,N
1504042855.6,286047002.1,N
1504042875.4,286047006.0,P
1504042895.3,286047003.9,N
1504042915.1,286047005.9,P
1504042935.8,286047001.9,N
1504042955.7,286046999.8,N
1504042975.5,286047000.6,N
1504042995.3,286046998.2,N
1504043015.2,286046999.6,N
1504043035.9,286046996.7,N
1504043055.7,286046997.1,N
1504043075.6,286046996.5,N
1504043095.4,286046999.5,N
1504043115.2,286046998.7,N
1504043135.1,286047000.6,N
1504043136.0,286047000.6,N
1504043155.8,286047002.6,N
1504043175.6,286047000.9,N
1504043195.5,286046999.0,N
1504043215.3,286047000.1,N
1504043235.1,286047002.8,N
1504043255.8,286046999.0,N
1504043275.7,286046999.5,N
1504043295.5,286046997.3,N
1504043315.3,286046999.5,N
1504043335.2,286046997.4,N
1504043355.9,286046996.9,N
1504043375.7,286046999.1,N
1504043395.6,286046996.6,N
1504043415.4,286046998.2,N
1504043435.2,286047005.2,N
1504043455.1,286047004.0,N
1504043456.0,286047004.0,N
1504043475.8,286047006.0,N
1504043495.6,286047005.5,N
1504043515.5,286047001.9,N
1504043535.3,286047001.6,N
1504043555.1,286047001.4,N
1504043575.9,286047002.4,N
1504043595.7,286047002.7,N
1504043615.5,286047000.4,N
1504043635.3,286046999.9,N
1504043655.2,286047002.8,N
1504043675.0,286047001.1,N
1504043675.9,286047001.1,N
1504043695.7,286046999.1,N
1504043715.6,286046999.6,N
1504043735.4,286046998.9,N
1504043755.2,286046995.3,N
1504043775.1,286046994.8,N
1504043776.0,286046994.8,N
1504043795.8,286046993.9,N
1504043815.6,286046995.9,N
1504043835.5,286046993.3,N
1504043855.3,286046996.1,N
1504043875.1,286046995.0,N
1504043895.9,286046993.9,N
1504043915.7,286046992.5,N
1504043935.5,286046992.5,N
1504043955.4,286046993.1,N
1504043975.2,286046992.0,N
1504043995.0,286046992.9,N
1504043995.9,286046992.9,N
